Wind_Speed
25 28 28 32 28 17 11 15 25 30 24 23 24 23 25 20 16 16 14 13 14 15 15 14 14 13 12 11 13 25 37 37 34 32 30 30 28 27 27 26 26 26 26 25 24 23 22 21 21 20 19 18 17 16 16 16 15 13 12 11 10 10 10
22 29 29 33 32 24 15 10 15 25 25 26 27 25 24 21 17 15 13 13 13 14 14 13 12 13 10 8 11 20 29 31 32 31 31 33 30 28 28 27 27 27 25 25 25 24 24 23 23 22 20 19 18 17 17 17 17 16 14 13 12 11 11
22 30 32 33 34 32 27 18 16 21 23 24 27 25 21 19 17 14 12 12 12 12 13 12 13 14 12 10 12 15 19 22 27 30 32 32 31 29 29 28 29 28 26 25 25 25 24 24 24 23 21 21 21 20 18 18 18 17 16 15 14 13 12
18 25 31 34 33 32 33 29 24 24 22 23 27 27 23 19 14 11 10 10 10 9 9 10 12 13 13 14 14 15 15 16 19 23 26 26 24 25 29 29 29 29 27 26 25 25 25 25 25 24 23 23 22 21 20 19 18 18 17 17 16 15 14
15 22 29 33 32 30 32 31 27 24 23 25 28 28 25 22 15 11 12 11 8 8 8 9 10 11 12 14 15 16 17 17 16 17 20 21 20 20 26 31 31 29 29 28 27 27 26 26 26 25 24 24 24 23 22 21 20 19 19 18 18 17 16
10 19 27 30 30 29 30 31 30 26 22 22 26 28 26 23 18 15 17 15 12 10 9 9 10 11 13 15 16 16 17 16 15 15 16 17 18 17 22 31 33 31 29 30 29 28 27 27 26 25 25 26 26 24 24 23 22 21 20 19 19 18 17
9 13 20 26 28 26 24 26 28 28 24 22 24 26 25 23 20 19 20 18 16 14 10 8 10 13 15 17 16 15 16 15 13 14 15 16 16 15 17 25 31 32 30 30 30 28 26 27 28 27 26 26 25 25 25 25 24 23 22 21 20 19 19
16 8 11 18 26 27 22 21 24 27 26 24 23 24 26 25 22 20 19 19 18 17 15 12 12 12 13 15 13 12 14 15 15 15 16 16 17 16 16 19 24 28 30 30 31 29 26 27 28 27 27 26 25 25 26 26 26 25 24 23 22 21 20
19 12 11 16 22 28 27 22 21 23 26 25 22 22 24 24 23 22 22 22 18 16 17 18 15 12 11 11 10 12 14 16 17 16 16 17 17 17 18 18 20 23 26 28 29 28 28 29 28 27 27 26 25 25 25 26 27 26 25 25 24 23 22
17 16 18 16 16 23 27 23 17 16 23 26 22 19 19 20 21 24 26 25 20 15 13 15 14 12 13 14 13 12 14 16 16 14 13 13 15 16 18 19 20 20 23 25 27 28 30 30 28 28 28 26 25 25 24 25 27 26 26 26 26 25 24
20 18 22 20 14 15 20 22 23 18 15 19 23 21 17 17 20 24 26 25 24 20 14 12 13 13 12 17 21 18 15 16 16 13 11 10 12 14 16 19 20 19 21 24 26 28 30 30 30 29 29 27 25 23 23 25 26 26 26 27 27 26 26
29 23 25 26 18 13 15 19 25 24 14 12 21 23 18 16 21 25 26 23 22 23 19 16 15 15 10 11 17 19 17 18 17 13 12 11 10 11 13 16 19 19 21 24 25 26 28 30 31 30 29 28 24 22 23 25 26 26 26 27 27 27 26
33 26 27 26 14 12 17 14 17 23 22 19 19 19 18 17 20 25 27 25 23 22 20 18 16 16 14 11 13 14 14 17 16 12 10 12 11 9 10 13 15 18 21 22 21 22 24 28 31 31 29 28 26 25 26 26 26 26 27 27 27 25 25
35 30 27 23 13 10 15 13 9 18 22 20 16 14 18 18 19 28 30 28 26 23 20 19 17 16 16 16 15 14 12 14 15 12 9 11 12 11 10 11 12 15 18 19 18 20 21 25 31 33 33 31 30 29 29 29 28 28 28 27 26 25 25
36 35 28 21 14 11 12 15 14 15 17 16 16 19 22 21 22 32 33 26 26 25 22 20 18 18 19 19 18 17 15 14 16 14 12 12 13 13 12 11 11 12 16 17 17 19 21 22 26 31 36 36 33 30 29 30 30 30 30 29 27 28 28
35 38 31 21 14 15 14 16 18 21 23 24 26 27 27 25 25 33 33 28 26 26 24 22 20 19 21 20 19 18 17 17 17 16 15 14 14 14 14 14 12 11 13 14 15 16 17 18 19 23 29 34 33 30 30 32 32 32 32 32 31 30 29
33 37 35 27 18 16 20 22 25 30 35 36 35 34 31 30 32 35 35 33 30 26 25 24 23 22 21 21 21 20 20 21 19 18 17 16 16 16 15 15 15 15 14 15 15 15 15 15 15 17 21 27 29 29 30 32 35 35 34 34 35 34 32
31 34 36 33 27 23 24 28 30 32 36 37 36 34 32 31 35 39 39 36 33 28 26 26 25 25 24 24 24 24 24 24 22 20 19 18 17 17 16 16 16 16 16 16 16 16 16 16 15 16 18 21 23 23 22 24 28 32 34 35 38 37 34
29 30 33 33 31 29 27 29 32 32 34 35 34 35 34 32 34 39 40 38 34 29 27 27 27 27 26 25 25 25 26 26 24 22 21 19 19 19 19 19 18 16 16 15 15 16 17 18 18 18 19 19 19 18 17 16 18 22 28 33 38 40 37
27 27 30 32 31 32 31 30 32 33 33 33 35 38 37 34 32 34 35 37 35 31 28 27 27 27 27 27 27 27 29 29 27 25 23 22 20 20 20 20 20 19 17 16 16 16 17 17 18 19 19 19 18 16 16 16 16 18 21 25 31 37 39
27 23 27 31 31 33 34 32 31 32 33 34 36 39 39 37 35 33 33 34 33 31 30 29 28 27 28 29 28 28 30 31 30 28 27 25 24 22 21 21 21 21 20 19 19 19 18 18 18 18 18 19 19 19 18 16 15 17 19 19 22 28 33
27 23 24 28 30 31 34 34 31 31 34 35 35 36 37 38 37 36 35 33 32 31 30 30 29 28 28 28 28 29 31 32 33 32 30 29 28 26 25 24 23 23 23 23 22 21 21 21 20 20 20 20 21 21 21 20 19 19 19 18 19 21 22
26 25 23 26 28 28 30 31 29 30 33 34 33 34 35 35 36 36 34 32 31 30 29 29 28 28 28 27 27 29 30 32 34 34 33 32 31 30 29 28 27 27 26 26 25 24 24 24 24 23 23 23 23 23 23 25 26 26 24 22 22 20 17
25 26 23 25 28 27 26 26 26 28 31 32 31 32 34 33 33 32 31 31 31 30 30 30 30 31 31 30 29 28 27 29 31 33 32 31 31 31 32 32 31 31 30 30 29 29 28 27 27 27 26 25 24 24 26 29 30 31 30 29 28 25 22
25 25 24 26 27 26 24 23 21 23 29 31 31 31 32 32 31 30 29 29 29 30 31 32 33 33 33 33 33 32 30 28 29 30 31 30 30 30 31 32 34 34 34 33 33 32 32 31 31 30 29 28 27 25 27 29 31 31 31 31 31 31 29
26 25 26 28 27 25 25 24 20 20 25 29 31 32 32 33 33 32 30 27 26 27 28 30 33 35 36 36 36 35 33 31 30 29 30 30 30 30 29 30 32 33 33 34 33 32 32 33 33 33 32 31 30 29 28 28 28 28 28 27 29 31 32
27 26 28 29 26 23 25 26 23 21 23 25 27 30 32 34 34 33 31 29 29 29 28 27 29 31 31 32 33 32 31 31 30 30 30 30 31 31 30 29 28 29 30 31 32 32 31 31 32 33 33 32 32 32 30 29 28 27 26 25 26 28 30
30 28 27 28 26 22 22 25 25 22 22 25 27 28 30 33 34 33 29 26 25 26 25 25 28 30 30 28 27 28 28 28 29 29 29 30 30 30 29 28 27 27 27 28 29 30 31 31 31 32 33 32 31 31 32 31 31 29 27 26 25 26 26
28 28 26 26 26 23 21 22 24 24 24 27 28 28 30 32 34 34 33 30 26 24 23 24 27 30 31 31 28 26 27 28 29 29 29 28 28 27 27 27 27 27 26 26 26 27 29 30 31 31 31 31 30 31 31 32 32 31 29 28 26 25 24
22 25 26 25 26 26 23 21 22 24 26 27 28 28 30 31 32 32 32 32 30 27 26 28 28 26 25 25 25 24 23 23 25 27 27 27 27 27 27 27 27 27 26 26 26 27 28 29 30 30 30 30 31 31 32 33 33 33 31 29 26 25 24
19 21 23 24 24 24 24 24 24 25 26 27 28 28 29 30 31 30 30 30 30 28 27 29 32 33 30 28 25 24 24 22 21 22 24 25 26 27 27 28 28 28 28 28 27 28 28 28 29 30 30 29 30 30 31 32 33 34 34 32 29 28 26
19 18 20 22 23 22 21 21 23 25 26 26 27 29 29 29 30 31 30 30 31 32 32 31 31 32 31 30 27 27 29 29 27 26 26 26 27 27 28 29 30 30 30 30 30 29 29 29 30 30 30 30 30 30 30 31 32 33 34 34 33 32 31
15 16 17 20 23 25 23 20 19 21 23 24 25 27 28 29 30 30 31 29 28 29 31 33 32 30 29 28 27 27 29 29 29 29 29 29 29 29 29 30 30 31 31 32 31 31 31 32 32 32 32 33 33 32 32 32 32 32 33 34 34 35 35
10 12 14 16 19 22 23 20 19 20 21 22 23 24 26 28 30 30 31 31 29 27 27 28 30 30 30 29 29 29 29 29 29 29 29 28 28 29 30 30 30 29 30 31 33 33 33 33 34 35 35 35 35 35 34 34 33 33 32 32 33 34 35
10 10 11 12 14 16 18 18 19 21 23 23 24 24 25 26 28 30 31 31 31 30 30 30 30 30 31 32 32 31 30 30 30 31 30 28 26 26 28 30 32 31 30 30 32 34 35 35 36 37 37 37 36 36 36 36 35 35 34 34 34 34 34
13 12 10 11 13 13 14 15 17 19 22 24 24 24 25 25 26 29 31 30 28 28 28 30 31 31 31 32 33 33 32 31 31 32 32 31 30 30 29 29 30 31 31 31 31 32 33 34 35 36 37 37 37 37 37 37 37 37 36 35 35 35 35
14 13 12 12 13 12 12 14 16 17 19 21 21 21 23 23 24 26 27 28 27 26 25 26 27 28 28 30 31 32 32 32 33 33 33 34 34 35 35 34 33 32 32 32 32 32 31 32 34 35 36 38 39 39 40 39 39 38 37 37 36 36 36
Wind_Direction
212 201 205 212 199 187 226 238 217 213 215 218 218 219 221 229 241 239 245 257 250 246 248 253 261 266 268 266 241 213 206 207 211 214 213 210 209 211 212 214 216 214 215 214 211 209 205 202 208 215 216 213 210 210 211 211 209 207 206 202 199 199 197
222 203 202 214 209 197 206 223 219 218 219 218 216 216 221 229 235 238 251 255 249 251 249 245 254 259 258 254 226 209 208 212 214 215 215 215 217 219 215 212 215 216 215 214 212 211 207 202 206 212 215 217 216 215 215 215 213 208 207 207 206 206 204
233 210 204 212 214 212 212 203 199 215 224 227 223 218 222 230 235 243 261 262 254 256 252 244 245 245 241 239 227 213 211 212 212 215 218 220 225 230 225 216 214 216 216 214 213 212 208 205 206 211 215 218 219 217 217 218 218 214 210 208 210 213 212
234 221 209 211 216 217 218 212 203 204 213 223 223 220 222 226 230 246 267 272 265 264 259 252 251 248 241 236 230 221 215 209 203 203 209 214 221 229 228 219 214 216 216 215 216 214 210 208 208 210 215 219 219 218 218 220 221 220 216 210 210 214 216
220 225 215 211 215 215 217 219 215 212 214 217 218 218 223 226 226 246 265 263 262 272 268 255 251 252 248 241 234 224 213 208 204 197 198 205 210 220 224 219 214 215 215 215 217 215 212 211 212 213 216 219 219 220 221 222 222 223 223 218 214 213 216
231 232 222 212 213 215 216 218 219 219 220 218 219 219 222 226 227 240 255 254 257 269 267 258 250 245 244 241 233 222 209 204 205 206 206 209 210 213 219 218 214 212 214 215 217 218 214 212 213 214 217 219 220 222 225 225 224 224 225 225 222 218 216
228 244 236 216 211 212 214 221 223 223 226 225 223 223 223 228 228 235 248 253 255 256 254 260 258 245 238 236 231 222 214 205 199 207 216 218 218 214 210 212 213 212 213 213 215 217 215 213 216 217 218 220 222 224 227 228 227 227 227 227 228 226 223
179 204 250 227 215 207 204 219 223 222 228 230 230 227 223 226 227 230 244 250 248 246 243 244 250 245 236 231 226 219 216 209 198 202 209 212 219 217 205 206 211 213 214 215 216 217 214 214 220 221 221 222 224 226 229 230 229 229 230 230 229 230 229
156 166 223 233 225 213 206 212 221 226 227 226 233 238 231 228 229 229 237 242 243 248 245 237 236 238 228 215 208 206 209 206 200 202 206 208 214 214 207 208 211 212 215 219 221 220 216 217 220 220 220 223 224 222 225 230 229 229 232 234 233 232 232
157 171 203 215 227 228 220 208 206 231 237 227 224 234 238 238 237 235 237 241 242 247 246 234 230 236 231 217 205 199 198 198 197 201 203 206 213 212 209 213 215 215 218 220 221 220 220 219 218 218 218 220 221 220 223 230 231 229 231 234 236 236 235
177 185 200 196 194 223 232 216 200 204 232 236 225 221 232 249 248 239 238 244 243 241 246 244 230 231 233 220 213 213 214 209 208 210 207 201 208 212 214 216 216 218 221 217 215 217 220 219 217 217 216 216 219 220 226 235 235 230 231 234 237 239 239
195 196 194 185 182 205 222 227 220 207 198 230 232 219 218 243 256 247 241 246 247 242 251 257 234 217 211 205 211 220 227 226 222 220 219 217 212 211 217 218 213 216 220 215 210 213 217 217 216 214 214 218 222 220 224 235 238 233 231 232 234 237 239
205 203 190 187 201 213 200 211 239 229 212 215 229 224 217 234 258 257 248 248 248 241 245 251 241 229 228 225 218 212 214 223 225 222 223 227 227 221 220 217 212 212 211 206 203 211 217 217 213 212 216 222 225 224 226 234 237 236 234 232 233 236 238
204 200 194 199 202 190 187 182 218 247 237 223 223 228 226 230 253 260 253 248 246 240 235 238 240 241 244 245 235 222 218 228 231 232 232 230 231 231 219 207 203 202 199 193 194 206 217 218 214 218 224 225 223 226 231 234 235 236 238 239 239 240 240
204 198 199 210 209 210 205 169 176 236 245 228 222 227 224 220 235 248 245 238 238 237 233 234 234 234 240 246 244 239 238 238 234 237 240 233 229 227 217 207 199 193 191 187 186 193 203 212 217 223 227 224 222 226 231 233 234 237 240 240 239 237 239
209 203 204 215 226 237 221 175 185 216 214 208 214 218 220 217 226 241 241 235 239 240 237 238 236 233 235 237 240 240 239 237 234 233 235 234 231 227 224 225 225 216 202 193 188 189 196 209 219 224 225 224 225 229 233 233 233 234 237 239 237 235 236
213 209 209 212 214 226 223 212 215 213 205 208 211 213 219 220 224 235 237 234 238 239 237 238 237 235 231 229 236 242 241 239 235 230 228 229 231 231 231 233 234 233 226 214 207 204 204 210 215 215 217 218 223 229 234 235 233 230 232 236 238 237 235
216 214 213 212 208 211 218 221 218 209 208 215 215 216 220 218 221 230 233 235 238 239 239 239 236 234 232 232 238 242 241 240 235 228 225 225 227 228 229 231 231 230 228 225 222 220 219 220 218 216 215 217 221 228 233 235 234 231 229 232 236 238 236
216 215 215 214 212 213 216 218 217 213 213 215 214 217 218 213 219 228 231 234 237 237 237 239 238 236 236 238 240 238 236 235 232 227 225 225 227 228 227 230 231 231 228 225 225 226 227 228 228 227 227 227 230 236 241 242 240 236 233 233 235 238 238
214 216 217 215 215 217 219 220 222 222 219 216 215 217 216 214 220 229 233 235 237 237 238 240 242 242 239 240 241 238 235 232 230 228 227 227 229 230 230 231 232 235 235 232 232 233 235 235 235 237 239 239 242 246 251 252 252 250 246 242 240 239 237
211 217 220 218 217 218 220 222 225 225 221 216 216 218 218 216 220 229 237 239 239 240 241 242 242 240 238 239 240 241 239 235 232 229 228 230 231 231 234 235 236 239 240 240 242 244 246 248 248 248 250 251 250 251 253 254 256 259 257 252 250 245 240
211 214 219 220 219 220 222 224 226 227 223 218 218 221 221 220 222 228 235 239 242 244 244 242 237 232 233 237 239 241 243 242 238 233 231 232 233 234 237 237 239 242 244 245 247 249 252 256 259 260 260 259 259 259 259 257 254 256 257 253 252 249 243
211 213 219 222 222 223 227 229 230 231 228 223 221 221 222 224 228 230 233 236 239 239 237 233 228 229 233 236 237 240 243 244 242 239 236 236 237 240 243 243 243 245 247 248 250 251 254 257 260 264 265 264 264 265 265 264 261 259 258 256 256 255 254
216 216 220 224 225 225 229 234 235 234 231 227 224 220 220 223 227 230 233 234 230 228 227 228 232 236 237 233 233 236 240 242 243 242 241 243 244 245 248 249 251 251 251 252 253 255 256 258 259 263 265 267 267 266 266 268 270 269 266 264 264 266 267
221 220 222 227 229 226 225 231 235 234 232 229 227 223 219 218 221 225 230 230 228 230 233 236 239 241 238 235 235 236 240 243 243 242 245 248 250 251 250 251 253 254 255 255 255 255 256 258 259 261 263 265 267 268 267 268 272 274 274 272 271 272 272
220 219 220 226 230 227 225 228 234 235 231 229 230 229 224 220 219 222 225 227 233 238 238 238 240 240 238 237 237 239 243 244 243 243 246 248 250 252 252 252 252 253 254 255 255 254 254 254 256 257 259 260 262 265 266 267 269 272 273 273 272 273 275
221 221 221 223 226 228 227 229 232 233 231 228 229 230 229 226 225 226 228 234 242 245 243 241 241 240 239 238 238 239 243 245 245 244 244 245 247 249 250 251 251 251 251 252 252 252 251 249 249 251 253 255 257 260 262 263 265 267 267 268 269 271 273
221 223 221 221 223 225 227 229 229 228 228 228 228 230 231 232 233 232 231 235 243 244 242 242 242 244 248 248 246 245 245 245 244 242 240 240 242 244 246 247 247 248 249 250 250 250 249 248 246 246 248 249 250 252 254 257 260 262 264 267 268 268 270
225 225 225 225 225 227 230 231 229 228 228 228 229 231 232 233 236 238 238 242 248 248 245 246 246 247 248 247 246 249 251 248 244 242 242 241 239 240 242 243 244 246 247 248 249 249 247 246 244 244 245 244 243 243 245 250 255 259 263 265 266 265 265
229 230 231 231 230 231 234 235 231 228 227 227 228 230 232 234 236 239 241 245 252 253 251 249 247 245 248 248 244 243 245 242 239 240 243 244 244 246 247 246 247 247 247 248 249 249 248 247 245 243 242 242 241 241 242 245 250 254 258 260 260 260 259
226 229 232 232 231 233 238 238 233 227 226 228 228 228 231 235 239 241 243 246 251 254 252 248 244 245 253 260 254 243 238 238 240 245 248 248 249 250 250 249 249 247 246 247 247 248 249 248 246 244 244 243 243 243 243 245 246 249 252 254 256 257 257
221 225 229 229 226 225 230 232 230 227 226 228 230 230 231 235 240 245 247 248 251 252 252 250 248 247 250 254 251 245 244 246 248 252 255 254 253 252 251 251 251 249 248 247 247 248 249 247 245 244 243 242 243 243 244 245 246 247 248 250 253 255 257
223 226 228 229 226 225 225 225 227 231 230 229 231 233 234 234 236 241 246 248 251 252 250 248 247 245 244 246 246 246 248 249 250 252 255 257 257 255 253 253 253 252 250 248 247 248 248 246 244 243 241 240 241 242 243 244 246 248 248 249 251 253 255
229 230 230 229 229 229 229 226 226 233 236 234 232 232 235 235 235 237 241 243 244 246 245 245 244 243 244 249 252 251 252 255 256 256 257 258 257 254 251 249 248 248 249 249 248 247 246 245 243 242 241 241 241 242 243 244 246 248 249 250 251 252 253
238 236 230 228 229 231 232 230 228 230 234 236 235 234 236 238 239 240 244 247 247 247 249 251 252 252 252 256 258 257 256 258 259 258 258 256 255 255 254 249 247 247 250 251 250 247 244 242 241 240 240 241 241 243 245 247 248 250 251 251 252 253 253
246 244 235 230 230 230 231 233 235 236 236 238 240 240 239 241 243 246 251 256 256 255 254 255 255 255 255 257 259 259 258 258 258 258 257 255 254 257 257 253 249 247 247 249 251 249 245 243 242 242 241 242 243 245 246 248 250 252 252 253 253 253 254
246 246 241 237 235 231 229 232 236 239 240 240 242 243 243 244 245 247 252 258 260 260 260 258 257 256 255 255 257 259 258 257 256 257 258 258 257 257 256 255 253 251 248 248 250 252 253 252 250 249 248 247 248 248 248 249 250 251 252 252 253 253 254
Height
5845 5849 5852 5853 5856 5862 5864 5862 5863 5867 5870 5871 5873 5874 5875 5876 5877 5878 5879 5879 5879 5881 5882 5882 5883 5883 5883 5883 5883 5885 5888 5892 5894 5897 5900 5902 5904 5906 5907 5909 5911 5913 5915 5916 5918 5920 5921 5923 5925 5926 5928 5930 5932 5934 5935 5937 5939 5940 5942 5943 5944 5945 5946
5844 5846 5849 5851 5854 5858 5860 5862 5864 5867 5868 5869 5871 5873 5874 5875 5876 5877 5878 5877 5877 5879 5880 5881 5882 5882 5883 5883 5884 5886 5888 5891 5893 5896 5898 5900 5902 5904 5905 5907 5909 5911 5913 5915 5917 5919 5920 5922 5923 5925 5927 5929 5931 5933 5935 5936 5938 5939 5941 5942 5943 5944 5945
5841 5844 5847 5849 5852 5855 5857 5860 5863 5865 5867 5869 5869 5871 5873 5874 5875 5876 5876 5875 5876 5878 5879 5880 5880 5881 5882 5883 5885 5886 5888 5890 5892 5894 5896 5899 5901 5903 5904 5906 5907 5910 5912 5914 5916 5917 5919 5921 5922 5924 5926 5928 5930 5932 5934 5935 5937 5938 5940 5942 5943 5944 5945
5840 5842 5845 5847 5850 5853 5855 5858 5860 5862 5864 5866 5867 5869 5872 5873 5874 5874 5874 5874 5876 5877 5878 5879 5880 5881 5881 5882 5884 5885 5887 5888 5890 5892 5894 5897 5899 5901 5902 5904 5906 5908 5910 5912 5914 5916 5918 5919 5921 5923 5924 5926 5928 5930 5932 5934 5936 5938 5939 5941 5942 5943 5945
5840 5842 5843 5846 5849 5852 5854 5857 5860 5861 5863 5864 5865 5868 5871 5872 5873 5873 5873 5874 5876 5877 5877 5878 5879 5880 5880 5881 5881 5883 5885 5886 5887 5890 5892 5894 5896 5898 5899 5901 5904 5906 5909 5911 5912 5914 5916 5918 5919 5921 5922 5924 5926 5928 5930 5933 5934 5936 5938 5940 5941 5942 5944
5841 5842 5842 5844 5847 5850 5853 5856 5858 5861 5862 5863 5864 5867 5869 5871 5873 5873 5872 5873 5876 5877 5877 5877 5878 5878 5878 5879 5879 5881 5883 5884 5886 5888 5890 5892 5894 5895 5896 5898 5901 5904 5906 5909 5910 5912 5914 5916 5918 5919 5921 5923 5925 5927 5929 5931 5933 5935 5937 5939 5940 5941 5943
5841 5842 5841 5842 5845 5849 5852 5855 5857 5860 5861 5863 5864 5866 5868 5870 5871 5872 5871 5872 5874 5875 5876 5876 5876 5876 5876 5876 5878 5880 5881 5882 5884 5886 5888 5890 5892 5893 5894 5895 5898 5901 5904 5906 5908 5910 5912 5914 5915 5918 5919 5921 5924 5926 5927 5929 5931 5933 5935 5937 5939 5940 5942
5838 5841 5842 5842 5843 5847 5851 5854 5856 5858 5860 5862 5863 5864 5866 5867 5869 5870 5869 5870 5871 5873 5874 5874 5874 5874 5875 5876 5879 5881 5881 5881 5882 5884 5886 5889 5891 5892 5893 5894 5896 5899 5901 5903 5905 5907 5910 5912 5914 5916 5918 5919 5922 5924 5925 5927 5929 5931 5933 5935 5937 5939 5940
5836 5840 5843 5843 5842 5845 5848 5852 5855 5856 5858 5861 5863 5863 5864 5865 5867 5868 5867 5867 5869 5871 5871 5871 5871 5873 5875 5877 5879 5881 5881 5880 5882 5883 5885 5887 5889 5891 5892 5894 5896 5897 5899 5900 5902 5905 5908 5910 5912 5915 5916 5918 5920 5921 5923 5925 5927 5929 5931 5933 5935 5937 5939
5836 5839 5842 5843 5843 5845 5847 5850 5854 5857 5857 5859 5862 5863 5864 5865 5866 5866 5865 5865 5868 5870 5870 5869 5870 5872 5874 5876 5878 5880 5880 5881 5882 5883 5885 5886 5888 5890 5892 5893 5895 5895 5896 5898 5900 5903 5905 5908 5910 5913 5914 5916 5919 5920 5921 5923 5926 5927 5929 5931 5933 5935 5937
5833 5835 5838 5841 5844 5846 5848 5849 5852 5854 5856 5858 5860 5862 5864 5865 5865 5863 5862 5864 5866 5868 5869 5870 5871 5872 5872 5874 5876 5877 5878 5880 5881 5882 5884 5885 5887 5888 5889 5891 5892 5893 5894 5895 5898 5900 5903 5905 5908 5910 5912 5914 5917 5919 5920 5922 5924 5926 5927 5929 5931 5933 5935
5829 5830 5833 5837 5841 5845 5847 5848 5850 5851 5855 5858 5858 5860 5863 5865 5863 5860 5860 5862 5864 5866 5867 5869 5871 5872 5871 5872 5874 5875 5876 5877 5879 5880 5881 5882 5883 5885 5887 5888 5889 5890 5892 5894 5896 5898 5900 5903 5906 5909 5911 5913 5915 5917 5918 5920 5922 5924 5925 5926 5928 5930 5932
5828 5829 5831 5834 5837 5841 5843 5846 5849 5851 5853 5855 5857 5859 5862 5863 5862 5859 5859 5861 5862 5864 5865 5867 5870 5871 5871 5872 5874 5874 5875 5876 5877 5877 5878 5879 5881 5883 5885 5887 5887 5889 5891 5893 5894 5896 5898 5900 5904 5907 5909 5911 5913 5915 5916 5918 5919 5921 5922 5924 5926 5929 5930
5825 5829 5832 5833 5835 5839 5841 5845 5850 5852 5852 5853 5857 5860 5862 5863 5861 5857 5856 5859 5861 5862 5864 5865 5868 5870 5869 5870 5872 5874 5874 5874 5874 5875 5877 5879 5881 5882 5883 5886 5887 5888 5890 5891 5892 5894 5896 5898 5901 5903 5905 5909 5912 5913 5914 5916 5917 5919 5921 5923 5926 5928 5928
5823 5826 5830 5832 5835 5838 5840 5844 5848 5851 5852 5854 5857 5858 5858 5860 5858 5852 5853 5857 5860 5861 5863 5864 5866 5868 5869 5869 5870 5872 5873 5873 5873 5874 5876 5879 5880 5882 5883 5884 5886 5888 5889 5890 5891 5892 5894 5896 5899 5900 5902 5905 5908 5910 5912 5914 5917 5918 5919 5920 5922 5924 5925
5821 5824 5827 5830 5834 5836 5839 5841 5842 5844 5847 5848 5849 5848 5849 5853 5852 5848 5850 5855 5858 5859 5861 5863 5864 5867 5868 5869 5869 5871 5873 5874 5874 5875 5876 5878 5880 5882 5883 5884 5885 5887 5889 5890 5891 5892 5893 5895 5897 5897 5899 5901 5904 5907 5909 5912 5914 5916 5916 5916 5916 5918 5921
5818 5821 5823 5827 5831 5834 5836 5835 5833 5836 5838 5838 5839 5841 5844 5848 5848 5846 5848 5852 5855 5857 5859 5860 5862 5864 5866 5868 5868 5870 5872 5873 5874 5875 5875 5877 5879 5881 5882 5884 5885 5886 5888 5889 5890 5891 5893 5894 5895 5896 5897 5899 5902 5905 5906 5908 5910 5913 5914 5914 5913 5914 5917
5815 5818 5820 5823 5826 5828 5829 5830 5830 5832 5834 5836 5839 5841 5844 5846 5845 5844 5846 5849 5852 5856 5856 5857 5859 5862 5864 5866 5867 5869 5870 5872 5873 5874 5874 5875 5877 5879 5881 5882 5884 5885 5886 5887 5889 5890 5892 5893 5895 5896 5897 5898 5900 5902 5903 5904 5906 5908 5910 5911 5910 5911 5914
5813 5816 5818 5820 5821 5823 5825 5826 5827 5830 5832 5835 5838 5840 5842 5843 5842 5842 5844 5846 5850 5853 5854 5855 5857 5859 5861 5863 5865 5867 5869 5870 5871 5872 5873 5874 5875 5877 5879 5881 5882 5883 5884 5886 5887 5888 5890 5892 5893 5894 5895 5896 5897 5898 5899 5901 5902 5904 5906 5907 5907 5908 5910
5812 5814 5815 5817 5818 5820 5821 5823 5824 5827 5830 5832 5834 5836 5839 5841 5841 5841 5842 5844 5847 5850 5851 5852 5855 5857 5860 5861 5862 5864 5866 5868 5869 5870 5871 5872 5873 5875 5877 5878 5879 5880 5882 5883 5885 5886 5888 5889 5891 5892 5893 5893 5894 5895 5896 5897 5899 5900 5902 5903 5903 5904 5906
5809 5811 5812 5813 5815 5816 5817 5819 5821 5823 5825 5828 5830 5832 5836 5838 5839 5840 5841 5842 5845 5848 5849 5850 5852 5855 5857 5859 5860 5862 5863 5865 5867 5868 5869 5870 5872 5873 5875 5876 5877 5878 5880 5881 5882 5884 5885 5886 5888 5889 5890 5891 5892 5892 5893 5895 5896 5897 5897 5898 5899 5899 5901
5807 5809 5810 5811 5812 5813 5814 5816 5818 5819 5821 5824 5828 5831 5833 5836 5837 5839 5839 5840 5843 5845 5847 5848 5850 5852 5854 5856 5858 5859 5860 5862 5864 5865 5867 5868 5869 5871 5873 5875 5876 5877 5878 5879 5880 5882 5883 5884 5885 5886 5887 5888 5889 5890 5891 5893 5894 5894 5894 5895 5895 5895 5896
5806 5807 5808 5809 5810 5811 5812 5814 5816 5817 5818 5822 5826 5828 5830 5832 5834 5836 5838 5839 5841 5842 5844 5846 5847 5849 5851 5854 5855 5856 5857 5859 5860 5862 5863 5865 5867 5868 5870 5872 5874 5875 5876 5877 5879 5880 5881 5882 5883 5884 5885 5886 5887 5888 5889 5889 5890 5891 5891 5892 5892 5893 5894
5804 5805 5806 5807 5807 5809 5811 5812 5814 5815 5816 5819 5823 5825 5827 5830 5832 5834 5836 5837 5837 5838 5840 5842 5844 5845 5848 5850 5852 5853 5855 5856 5857 5858 5860 5862 5863 5865 5867 5868 5870 5872 5873 5875 5876 5878 5879 5880 5881 5881 5882 5883 5883 5885 5886 5886 5886 5886 5888 5888 5889 5890 5891
5802 5803 5804 5804 5804 5806 5808 5810 5811 5812 5813 5816 5820 5822 5825 5828 5830 5832 5833 5833 5833 5834 5836 5839 5840 5841 5844 5846 5848 5850 5852 5852 5854 5855 5856 5858 5859 5861 5863 5865 5866 5868 5869 5871 5873 5875 5876 5877 5878 5878 5879 5880 5880 5881 5882 5882 5882 5882 5883 5885 5885 5886 5887
5799 5800 5801 5800 5801 5804 5806 5807 5809 5811 5812 5814 5816 5819 5823 5826 5828 5829 5830 5829 5830 5831 5834 5837 5838 5837 5838 5840 5842 5845 5847 5848 5850 5851 5852 5854 5855 5856 5858 5860 5862 5864 5865 5867 5868 5870 5872 5873 5874 5875 5876 5877 5877 5878 5878 5878 5879 5879 5880 5881 5882 5883 5883
5796 5797 5798 5800 5801 5803 5804 5805 5807 5809 5810 5812 5814 5816 5819 5822 5823 5826 5827 5828 5828 5829 5832 5835 5836 5836 5835 5835 5836 5838 5841 5843 5845 5847 5848 5849 5851 5852 5854 5856 5858 5860 5862 5863 5864 5866 5867 5869 5870 5871 5872 5873 5874 5875 5875 5875 5876 5876 5877 5878 5879 5879 5879
5793 5795 5797 5798 5800 5801 5803 5804 5805 5806 5808 5810 5813 5815 5817 5817 5818 5820 5824 5827 5828 5829 5832 5834 5834 5833 5833 5832 5832 5834 5837 5839 5841 5842 5843 5846 5847 5849 5851 5853 5854 5856 5857 5859 5860 5862 5863 5865 5866 5867 5869 5870 5871 5871 5872 5872 5872 5873 5873 5874 5875 5876 5876
5791 5793 5795 5796 5798 5800 5802 5803 5804 5805 5806 5808 5810 5812 5814 5814 5815 5817 5820 5823 5825 5827 5830 5832 5831 5829 5828 5828 5829 5831 5834 5835 5837 5838 5840 5842 5843 5845 5847 5849 5850 5852 5853 5854 5856 5857 5859 5860 5861 5863 5864 5865 5867 5867 5868 5869 5869 5869 5870 5871 5871 5872 5873
5790 5791 5793 5795 5797 5798 5800 5801 5802 5803 5804 5805 5806 5808 5810 5812 5814 5815 5816 5817 5819 5821 5825 5828 5829 5827 5825 5825 5826 5829 5830 5830 5832 5835 5837 5838 5840 5842 5844 5846 5847 5848 5849 5851 5852 5853 5854 5855 5857 5858 5860 5861 5862 5863 5864 5865 5866 5866 5867 5868 5868 5869 5870
5789 5790 5792 5794 5796 5797 5798 5799 5800 5801 5802 5803 5804 5806 5808 5809 5811 5813 5814 5815 5817 5819 5822 5823 5823 5823 5823 5823 5824 5827 5827 5827 5829 5832 5833 5835 5837 5838 5840 5842 5843 5844 5845 5846 5848 5849 5850 5851 5852 5854 5855 5856 5858 5859 5860 5861 5863 5863 5864 5865 5865 5866 5867
5788 5789 5790 5792 5794 5795 5796 5796 5797 5798 5800 5801 5803 5804 5806 5808 5808 5810 5811 5813 5815 5817 5818 5819 5818 5818 5819 5820 5821 5823 5824 5825 5827 5829 5829 5831 5833 5834 5835 5837 5838 5839 5841 5842 5844 5845 5846 5848 5849 5850 5851 5852 5853 5855 5856 5857 5858 5859 5861 5861 5862 5862 5863
5787 5788 5789 5790 5792 5793 5794 5795 5795 5796 5797 5799 5801 5802 5804 5806 5807 5808 5808 5809 5811 5813 5814 5814 5814 5814 5815 5816 5818 5819 5820 5821 5824 5825 5826 5827 5829 5830 5831 5832 5833 5835 5836 5838 5839 5841 5842 5844 5845 5846 5847 5848 5848 5849 5851 5852 5853 5855 5856 5857 5858 5858 5859
5785 5786 5787 5788 5790 5791 5792 5793 5794 5794 5795 5797 5799 5800 5801 5802 5804 5805 5806 5806 5808 5808 5809 5809 5810 5810 5811 5812 5814 5815 5816 5818 5819 5821 5822 5824 5825 5826 5827 5828 5829 5830 5831 5833 5834 5836 5838 5839 5840 5841 5842 5843 5844 5844 5845 5847 5848 5849 5851 5852 5854 5854 5855
5785 5785 5786 5787 5788 5789 5790 5791 5792 5793 5793 5794 5796 5798 5799 5800 5801 5801 5801 5801 5803 5805 5805 5806 5806 5807 5807 5808 5809 5811 5812 5814 5815 5817 5818 5820 5821 5822 5823 5824 5825 5826 5827 5828 5829 5830 5832 5834 5835 5836 5837 5838 5839 5840 5841 5842 5843 5844 5846 5847 5849 5850 5851
5784 5785 5786 5786 5787 5787 5788 5789 5790 5791 5791 5792 5793 5795 5797 5798 5798 5798 5796 5796 5799 5801 5802 5803 5804 5804 5805 5805 5806 5807 5809 5810 5812 5813 5814 5816 5817 5818 5819 5820 5821 5823 5824 5824 5825 5826 5827 5828 5830 5831 5833 5834 5835 5836 5837 5837 5838 5839 5841 5842 5844 5845 5846
5783 5784 5784 5785 5785 5786 5787 5788 5789 5789 5789 5790 5790 5792 5793 5795 5796 5796 5795 5795 5796 5797 5798 5799 5801 5802 5803 5803 5804 5804 5806 5807 5808 5809 5810 5811 5812 5814 5815 5816 5818 5819 5820 5821 5821 5822 5823 5824 5826 5827 5828 5830 5831 5831 5832 5833 5834 5835 5836 5837 5838 5839 5841